Regional Weather Roundup
Issued by NWS

Home | Current Version | Previous Version | Graphics & Text | Print | Product List | Glossary On
Versions: 1 2 3 4 5 6 7 8 9 10 11 12 13 14 15 16 17 18 19 20 21 22 23 24 25 26 27 28 29 30 31 32 33 34 35 36 37 38 39 40 41 42 43 44 45 46 47 48 49 50
000
ASUS44 KMEG 221800
RWRTN
TENNESSEE HOURLY STATE WEATHER ROUNDUP
NATIONAL WEATHER SERVICE MEMPHIS TN
1200 PM CST SUN JAN 22 2017

TNZ002-004-019-021-049-052-054-088>092-221900-
WEST TENNESSEE

CITY           SKY/WX    TMP DP  RH WIND       PRES   REMARKS
MEMPHIS INTL   NOT AVBL
NWS MEMPHIS      N/A     56 N/A N/A MISG        N/A
JACKSON        CLOUDY    57  55  93 S7        29.37S
DYERSBURG      CLOUDY    57  54  88 E6        29.34F
UNION CITY     MOSUNNY   61  54  77 CALM      29.36F
PARIS          CLOUDY    57  50  77 CALM      29.38F
$$

TNZ008-025-027-028-033-062-065-066-221900-
NORTH MIDDLE TENNESSEE

CITY           SKY/WX    TMP DP  RH WIND       PRES   REMARKS
NASHVILLE      PTSUNNY   63  54  72 E8        29.41F
CLARKSVILLE    CLOUDY    61  51  70 E8        29.41F
SMYRNA         PTSUNNY   64  54  69 VRB5      29.41F
CROSSVILLE     PTSUNNY   59  50  72 S9        29.44F
$$

TNZ061-075-076-078-094-096-097-221900-
SOUTH MIDDLE TENNESSEE

CITY           SKY/WX    TMP DP  RH WIND       PRES   REMARKS
TULLAHOMA      CLOUDY    61  54  77 E3        29.38F
WINCHESTER     MOSUNNY   63  55  77 E7        29.34F
COLUMBIA       PTSUNNY   61  61 100 VRB3      29.36F
SHELBYVILLE    MOSUNNY   63  55  77 E5        29.39F
$$

TNZ017-018-042-046-047-221900-
NORTHEAST TENNESSEE

CITY           SKY/WX    TMP DP  RH WIND       PRES   REMARKS
TRI CITIES     MOSUNNY   65  52  62 CALM      29.45F
$$

TNZ012-013-036-069-073-074-221900-
CENTRAL EAST TENNESSEE

CITY           SKY/WX    TMP DP  RH WIND       PRES   REMARKS
KNOXVILLE      PTSUNNY   68  51  54 SW21      29.41F
OAK RIDGE      CLOUDY    62  54  74 SW5       29.44F
GATLINBURG     CLOUDY    63  54  72 NW8       29.42F
$$

TNZ083-085-099-221900-
SOUTHEAST TENNESSEE

CITY           SKY/WX    TMP DP  RH WIND       PRES   REMARKS
CHATTANOOGA    CLOUDY    63  55  75 SE7       29.40F
$$

SKY/WX REPORTED AS FAIR MEANS FEW OR NO CLOUDS BELOW
12 THOUSAND FEET.





USA.gov is the U.S. government's official web portal to all federal, state and local government web resources and services.